Weather History for KSJX - December, 2013

Change the Weather History Date:

Tuesday, December 24, 2013

  Actual Average Record
Temperature  
Mean Temperature -2 °F -  
Max Temperature 11 °F 30 °F 41 °F (2006)
Min Temperature -13 °F 19 °F -13 °F (2013)
Degree Days  
Heating Degree Days 66    
Moisture  
Dew Point -5 °F    
Average Humidity 82    
Maximum Humidity 88    
Minimum Humidity 68    
Precipitation  
Precipitation 0.00 in - - ()
Sea Level Pressure  
Sea Level Pressure 30.41 in    
Wind  
Wind Speed 2 mph (ENE)    
Max Wind Speed 7 mph    
Max Gust Speed -    
Visibility 10 miles    
Events Snow    
Averages and records for this station are not official NWS values.
T = Trace of Precipitation, MM = Missing Value Source: NWS Daily Summary

Daily Weather History Graph

Daily Weather History Graph

Search for Another Location

Airport or City:

Trip Planner

Search our weather history database for the weather conditions in past years. The results will help you decide how hot, cold, wet, or windy it might be!

Date:

Astronomy

Dec. 24, 2013 Rise Set
Actual Time 8:21 AM EST 5:02 PM EST
Civil Twilight 7:47 AM EST 5:37 PM EST
Nautical Twilight 7:09 AM EST 6:14 PM EST
Astronomical Twilight 6:33 AM EST 6:51 PM EST
Moon No Moon Rise 11:55 AM EST (12/24)
Length of Visible Light 9h 50m
Length of Day
8h 41m
Waning Gibbous, 59% of the Moon is Illuminated
Dec 24
Waning Gibbous
Dec 25
Last Quarter
Jan 1
New
Jan 7
First Quarter
Jan 15
Full

Hourly Weather History & Observations

Time (EST) Temp. Windchill Dew Point Humidity Pressure Visibility Wind Dir Wind Speed Gust Speed Precip Events Conditions
12:15 AM -2.2 °F -10.4 °F -6.0 °F 84% 30.33 in 10.0 mi NE 3.5 mph - N/A   Scattered Clouds
12:35 AM 1.8 °F -5.8 °F -1.5 °F 86% 30.33 in 10.0 mi NE 3.5 mph - N/A   Mostly Cloudy
12:56 AM 3.2 °F -6.2 °F -0.4 °F 85% 30.33 in 10.0 mi ENE 4.6 mph - N/A   Scattered Clouds
1:15 AM 2.8 °F -4.6 °F -0.8 °F 85% 30.33 in 10.0 mi NE 3.5 mph - N/A   Clear
1:35 AM 2.8 °F -6.6 °F -0.8 °F 85% 30.33 in 10.0 mi ENE 4.6 mph - N/A   Clear
1:55 AM - - - N/A% 30.33 in 10.0 mi ENE 5.8 mph - N/A   Clear
2:15 AM - - - N/A% 30.34 in 10.0 mi NE 4.6 mph - N/A   Clear
2:35 AM - - - N/A% 30.35 in 10.0 mi ENE 4.6 mph - N/A   Clear
2:55 AM -0.6 °F - -4.5 °F 83% 30.36 in 10.0 mi Calm Calm - N/A   Clear
3:15 AM -4.7 °F - -9.2 °F 81% 30.37 in 10.0 mi Calm Calm - N/A   Clear
3:35 AM - - - N/A% 30.38 in 10.0 mi NE 3.5 mph - N/A   Clear
3:55 AM - - - N/A% 30.38 in 10.0 mi Calm Calm - N/A   Clear
4:15 AM -4.5 °F - -8.5 °F 83% 30.39 in 10.0 mi Calm Calm - N/A   Clear
4:35 AM - - - N/A% 30.39 in 10.0 mi Calm Calm - N/A   Clear
4:55 AM -5.6 °F - -9.9 °F 82% 30.39 in 10.0 mi Calm Calm - N/A   Clear
5:15 AM -8.9 °F - -13.7 °F 79% 30.39 in 10.0 mi Calm Calm - N/A   Clear
5:35 AM -10.5 °F - -15.3 °F 79% 30.40 in 10.0 mi Calm Calm - N/A   Clear
5:55 AM -9.8 °F - -13.9 °F 82% 30.40 in 10.0 mi Calm Calm - N/A   Clear
6:16 AM -11.4 °F - -15.7 °F 81% 30.41 in 10.0 mi Calm Calm - N/A   Clear
6:35 AM -12.3 °F - -16.8 °F 80% 30.42 in 10.0 mi Calm Calm - N/A   Clear
6:55 AM -11.6 °F - -16.1 °F 80% 30.42 in 10.0 mi Calm Calm - N/A   Clear
7:16 AM -12.3 °F - -17.3 °F 78% 30.43 in 10.0 mi Calm Calm - N/A   Clear
7:35 AM -12.3 °F - -17.5 °F 78% 30.43 in 10.0 mi Calm Calm - N/A   Clear
7:55 AM -12.8 °F - -16.8 °F 82% 30.43 in 10.0 mi Calm Calm - N/A   Clear
8:15 AM -12.1 °F - -17.0 °F 79% 30.44 in 10.0 mi Calm Calm - N/A   Clear
8:35 AM -13.4 °F - -18.4 °F 78% 30.44 in 10.0 mi Calm Calm - N/A   Clear
8:55 AM -12.5 °F - -17.3 °F 79% 30.45 in 10.0 mi Calm Calm - N/A   Clear
9:15 AM -10.8 °F - -16.1 °F 78% 30.45 in 10.0 mi Calm Calm - N/A   Clear
9:35 AM -9.6 °F - -13.9 °F 81% 30.45 in 5.0 mi Calm Calm - N/A   Clear
9:55 AM -4.7 °F -13.2 °F -8.0 °F 86% 30.45 in 10.0 mi NE 3.5 mph - N/A   Clear
10:15 AM 0.5 °F - -3.1 °F 85% 30.45 in 10.0 mi Calm Calm - N/A   Clear
10:35 AM 2.1 °F -5.4 °F -1.3 °F 86% 30.46 in 10.0 mi NE 3.5 mph - N/A   Clear
10:56 AM 2.8 °F - -0.8 °F 85% 30.46 in 10.0 mi Calm Calm - N/A   Clear
11:15 AM 3.2 °F -4.2 °F -0.4 °F 85% 30.46 in 10.0 mi NNE 3.5 mph - N/A   Clear
11:35 AM 3.6 °F - -0.0 °F 85% 30.46 in 10.0 mi Calm Calm - N/A   Clear
11:55 AM 4.5 °F - 1.2 °F 86% 30.45 in 10.0 mi Calm Calm - N/A   Clear
12:15 PM 4.8 °F - 1.4 °F 86% 30.45 in 10.0 mi Calm Calm - N/A   Clear
12:36 PM 7.2 °F - 4.3 °F 88% 30.45 in 10.0 mi Calm Calm - N/A   Clear
12:55 PM 5.9 °F - 2.1 °F 84% 30.45 in 10.0 mi Calm Calm - N/A   Clear
1:15 PM 8.4 °F - 3.9 °F 82% 30.45 in 10.0 mi Calm Calm - N/A   Clear
1:33 PM 7.3 °F - 1.4 °F 77% 30.44 in 10.0 mi Calm Calm - N/A   Clear
1:55 PM 9.0 °F - 0.7 °F 69% 30.45 in 10.0 mi Calm Calm - N/A   Clear
2:15 PM 9.5 °F - 1.2 °F 69% 30.44 in 10.0 mi Calm Calm - N/A   Clear
2:35 PM 9.9 °F - 1.2 °F 68% 30.44 in 10.0 mi Calm Calm - N/A   Clear
2:55 PM 10.0 °F 3.6 °F 1.6 °F 69% 30.44 in 10.0 mi ESE 3.5 mph - N/A   Clear
3:15 PM 9.1 °F -1.9 °F 1.4 °F 71% 30.44 in 10.0 mi ESE 6.9 mph - N/A   Clear
3:35 PM 7.7 °F -3.7 °F 1.2 °F 75% 30.43 in 10.0 mi East 6.9 mph - N/A   Clear
3:55 PM 6.6 °F -3.7 °F 0.5 °F 76% 30.44 in 10.0 mi East 5.8 mph - N/A   Clear
4:15 PM 6.8 °F -2.0 °F 1.8 °F 80% 30.44 in 10.0 mi East 4.6 mph - N/A   Clear
4:35 PM 6.3 °F -0.7 °F 2.1 °F 83% 30.43 in 10.0 mi East 3.5 mph - N/A   Clear
4:55 PM 5.9 °F -1.1 °F 2.3 °F 85% 30.43 in 10.0 mi East 3.5 mph - N/A   Clear
5:15 PM 3.7 °F -3.6 °F 0.7 °F 87% 30.43 in 10.0 mi ESE 3.5 mph - N/A   Clear
5:35 PM 0.5 °F - -2.6 °F 87% 30.44 in 10.0 mi Calm Calm - N/A   Clear
5:55 PM 1.2 °F - -1.8 °F 87% 30.43 in 10.0 mi Calm Calm - N/A   Clear
6:15 PM 0.7 °F - -2.7 °F 86% 30.43 in 10.0 mi Calm Calm - N/A   Clear
6:35 PM 0.3 °F -7.5 °F -3.3 °F 85% 30.43 in 10.0 mi East 3.5 mph - N/A   Mostly Cloudy
6:55 PM 4.1 °F -6.7 °F 0.9 °F 86% 30.42 in 10.0 mi ESE 5.8 mph - N/A Snow Light Snow
7:15 PM 6.6 °F -3.7 °F 3.6 °F 87% 30.41 in 10.0 mi East 5.8 mph - N/A Snow Light Snow
7:35 PM 8.2 °F -1.8 °F 5.0 °F 87% 30.41 in 4.0 mi ESE 5.8 mph - N/A Snow Light Snow
7:50 PM 11.7 °F 2.3 °F 8.6 °F 88% 30.40 in 5.0 mi ESE 5.8 mph - N/A Snow Light Snow